Simultaneous Nadir Overpasses (SNOs) Predictions

Prediction of SNOs between FY3D and METOP-A Satellite Orbit:

Table of predicted SNOs for the next 14.0 days since TLE Epoch: 8/1/2020
Index Date (FY3D) Time (FY3D) Lat,Lon (FY3D) SZA (FY3D ) Date (METOP-A) Time (METOP-A) Lat,Lon (METOP-A) SZA (METOP-A ) Distance(km) Time Diff (sec)
1 08/05/2020 01:06:28 -76.44, -33.26 119.78 08/05/2020 01:07:33 -76.42, -29.68 120.08 93.31 65
2 08/05/2020 01:57:09 76.27, 134.68 60.02 08/05/2020 01:58:17 76.24, 137.00 59.80 61.52 68
3 08/05/2020 02:47:51 -76.17, -57.65 120.10 08/05/2020 02:49:01 -76.13, -56.04 120.28 42.93 70
4 08/05/2020 03:38:32 75.99, 110.27 59.70 08/05/2020 03:39:45 75.94, 110.67 59.60 12.16 73
5 08/05/2020 04:29:14 -75.89, -82.07 120.41 08/05/2020 04:30:27 -75.92, -82.06 120.41 3.43 73
6 08/05/2020 05:19:59 75.90, 85.22 59.61 08/05/2020 05:21:07 75.92, 85.26 59.60 2.42 68
7 08/05/2020 06:10:43 -75.89,-107.43 120.40 08/05/2020 06:11:49 -75.90,-107.47 120.40 1.72 66
8 08/05/2020 07:01:28 75.89, 59.86 59.63 08/05/2020 07:02:29 75.89, 59.85 59.61 0.31 61
9 08/05/2020 07:52:12 -75.88,-132.80 120.38 08/05/2020 07:53:11 -75.88,-132.88 120.40 2.31 59
10 08/05/2020 08:42:56 75.89, 34.50 59.64 08/05/2020 08:43:50 75.87, 34.44 59.61 2.40 54
11 08/05/2020 09:33:40 -75.88,-158.16 120.36 08/05/2020 09:34:31 -75.90,-158.13 120.36 2.62 51
12 08/05/2020 10:24:25 75.89, 9.13 59.66 08/05/2020 10:25:11 75.90, 9.18 59.65 1.87 46
13 08/05/2020 11:15:09 -75.88, 176.48 120.35 08/05/2020 11:15:53 -75.88, 176.46 120.36 0.78 44
14 08/05/2020 12:05:54 75.89, -16.23 59.67 08/05/2020 12:06:33 75.88, -16.22 59.65 0.76 39
15 08/05/2020 12:56:38 -75.88, 151.12 120.33 08/05/2020 12:57:15 -75.86, 151.05 120.35 2.36 37
16 08/05/2020 13:47:23 75.88, -41.59 59.69 08/05/2020 13:47:55 75.86, -41.63 59.66 3.02 32
17 08/05/2020 14:38:07 -75.87, 125.75 120.32 08/05/2020 14:38:36 -75.89, 125.79 120.31 1.96 29
18 08/05/2020 15:28:52 75.88, -66.95 59.71 08/05/2020 15:29:16 75.88, -66.89 59.70 1.77 24
19 08/05/2020 16:19:36 -75.87, 100.39 120.30 08/05/2020 16:19:58 -75.87, 100.39 120.31 0.41 22
20 08/05/2020 17:10:21 75.88, -92.32 59.72 08/05/2020 17:10:38 75.86, -92.30 59.70 1.75 17
21 08/05/2020 18:01:05 -75.87, 75.03 120.28 08/05/2020 18:01:20 -75.85, 74.98 120.31 2.77 15
22 08/05/2020 18:51:50 75.88,-117.68 59.74 08/05/2020 18:51:59 75.89,-117.56 59.74 3.66 9
23 08/05/2020 19:42:34 -75.87, 49.67 120.27 08/05/2020 19:42:41 -75.87, 49.72 120.27 1.65 7
24 08/05/2020 20:33:19 75.87,-143.04 59.75 08/05/2020 20:33:21 75.87,-142.96 59.74 2.18 2
25 08/05/2020 21:24:03 -75.86, 24.30 120.25 08/05/2020 21:24:03 -75.85, 24.31 120.26 1.28 0
26 08/05/2020 22:14:48 75.87,-168.40 59.77 08/05/2020 22:14:43 75.85,-168.37 59.75 2.75 5
27 08/05/2020 23:05:32 -75.86, -1.06 120.24 08/05/2020 23:05:25 -75.83, -1.09 120.26 3.43 7
28 08/05/2020 23:56:17 75.87, 166.23 59.79 08/05/2020 23:56:04 75.87, 166.37 59.79 3.77 13
29 08/06/2020 00:47:01 -75.86, -26.42 120.22 08/06/2020 00:46:46 -75.86, -26.35 120.22 1.88 15
30 08/06/2020 01:37:46 75.87, 140.87 59.80 08/06/2020 01:37:26 75.85, 140.96 59.79 2.90 20
31 08/06/2020 02:28:30 -75.86, -51.78 120.20 08/06/2020 02:28:08 -75.84, -51.76 120.22 2.25 22
32 08/06/2020 03:19:14 75.82, 115.66 59.76 08/06/2020 03:18:48 75.83, 115.56 59.79 3.32 26
33 08/06/2020 04:09:59 -75.85, -77.15 120.19 08/06/2020 04:09:29 -75.86, -77.02 120.18 3.66 30
34 08/06/2020 05:00:44 75.86, 90.15 59.84 08/06/2020 05:00:09 75.86, 90.30 59.83 4.13 35
35 08/06/2020 05:51:28 -75.85,-102.51 120.17 08/06/2020 05:50:51 -75.84,-102.42 120.17 2.51 37
36 08/06/2020 06:42:12 75.81, 64.94 59.80 08/06/2020 06:41:31 75.84, 64.89 59.84 3.02 41
37 08/06/2020 07:32:57 -75.85,-127.87 120.15 08/06/2020 07:32:13 -75.82,-127.83 120.17 3.23 44
38 08/06/2020 08:23:41 75.81, 39.57 59.81 08/06/2020 08:22:53 75.82, 39.48 59.84 2.59 48
39 08/06/2020 09:14:26 -75.85,-153.23 120.14 08/06/2020 09:13:34 -75.85,-153.09 120.13 3.94 52
40 08/06/2020 10:05:10 75.81, 14.21 59.83 08/06/2020 10:04:14 75.84, 14.22 59.88 3.88 56
41 08/06/2020 10:55:55 -75.85,-178.60 120.12 08/06/2020 10:54:56 -75.83,-178.50 120.13 3.33 59
42 08/06/2020 11:46:39 75.81, -11.15 59.85 08/06/2020 11:45:36 75.82, -11.18 59.88 2.01 63
43 08/06/2020 12:37:23 -75.80, 156.19 120.16 08/06/2020 12:36:18 -75.81, 156.10 120.12 2.88 65
44 08/06/2020 13:28:08 75.80, -36.51 59.86 08/06/2020 13:26:58 75.80, -36.59 59.89 2.12 70
45 08/06/2020 14:18:52 -75.79, 130.83 120.14 08/06/2020 14:17:40 -75.79, 130.69 120.12 3.90 72
46 08/06/2020 15:09:35 75.71, -61.57 59.77 08/06/2020 15:08:22 75.69, -62.29 59.82 19.92 73
47 08/06/2020 16:00:17 -75.61, 106.07 120.35 08/06/2020 15:59:05 -75.62, 104.85 120.21 33.78 72
48 08/06/2020 16:50:57 75.38, -85.91 59.40 08/06/2020 16:49:50 75.38, -88.56 59.63 74.49 67
49 08/06/2020 17:41:40 -75.32, 81.58 120.66 08/06/2020 17:40:33 -75.32, 78.59 120.41 84.07 67
